severe thunderstorm threat

Severe Thunderstorm Threat Friday Evening

Severe Thunderstorm Threat Friday Evening

Severe Thunderstorm Threat Friday Evening

The Storm Prediction Center has slightly expanded their area of marginal threat for Severe Weather to include all of Southern New England and the Hudson Valley of NY going into this evening. However much like yesterday downpours and thunderstorms are beginning to pop up and any one of those cells as far south as Pennsylvania, New Jersey and Delaware could develop into a severe cell. The tropical air that is abundant means that theses storms could be big rain producers again for some areas. It is a matter of hit and miss and watching the sky for cloud build ups as we head into this evening.

STORM PREDICTION CENTER 

Severe Thunderstorm Threat

storm free

Severe Thunderstorm Threat Regional Radar

 

storm free

Severe Thunderstorm Threat Local Radars

storm free
storm free

Radars are getting a little busy right now and activity should increase into the late evening. Temperatures and dew points are supportive and oppressive. Temperatures are approaching the low to middle 90s though it is a little lower over Central and Eastern Long Island thanks to the ocean wind. Dewpoints are in the middle and upper 70s which is really excessive and ripe for strong thunderstorm development. So we watch and wait.

CITY           SKY/WX    TMP DP  RH WIND       PRES   REMARKS
Central Park   SUNNY     93  75  55 VRB5      29.88F HX 104
LaGuardia APRT MOSUNNY   95  74  50 SW9       29.85F HX 105
Kennedy INTL   MOSUNNY   90  78  68 S13G20    29.88F HX 104
Newark/Liberty PTSUNNY   94  74  52 SW16G23   29.85F HX 104
Bronx Bot Gard   N/A     93  73  52 W8        29.86F HX 102
Wall St Helipt CLEAR     93  75  55 W8        29.87F HX 104
Teterboro      MOSUNNY   94  74  52 W9        29.84F HX 104
$$

NYZ177-179-078>081-121900-
LONG ISLAND NEW YORK

CITY           SKY/WX    TMP DP  RH WIND       PRES   REMARKS
Farmingdale    SUNNY     91  77  63 S15       29.87F HX 104
MacArthur/ISP  PTSUNNY   89  76  65 SW18G25   29.87F HX 100
Shirley        SUNNY     87  76  69 S14G24    29.88F HX  97
Riverhead      NOT AVBL
Westhampton    SUNNY     86  75  69 S14G21    29.89F HX  95
Southampton      N/A     81  75  83 SW12      29.85F
Bridgehampton  NOT AVBL
East Hampton   FAIR      83  76  79 SW13G22   29.88F HX  91
Montauk          N/A     83  76  79 SW9       29.89F HX  91
$$

NYZ052-065-067-121900-
HUDSON VALLEY

CITY           SKY/WX    TMP DP  RH WIND       PRES   REMARKS
White Plains   PTSUNNY   92  75  57 SW6       29.86F HX 103
Newburgh       MOSUNNY   90  79  70 W14       29.87F HX 105
Montgomery     MOSUNNY   92  77  61 S14       29.84F HX 105
Poughkeepsie   MOSUNNY   93  76  57 SW10      29.83F HX 105
Albany         PTSUNNY   91  74  57 SW8       29.81F HX 100
$$

NJZ001-105-106-008-010-013-015-019>022-104-121900-
NEW JERSEY

CITY           SKY/WX    TMP DP  RH WIND       PRES   REMARKS
Newark/Liberty PTSUNNY   94  74  52 SW16G23   29.85F HX 104
Teterboro      MOSUNNY   94  74  52 W9        29.84F HX 104
Caldwell       MOSUNNY   93  76  57 W8        29.86F HX 105
Morristown     MOSUNNY   91  77  62 W9G15     29.88F HX 105
Somerville     MOSUNNY   91  76  61 VRB5      29.86F HX 103
Linden         FAIR      93  74  53 NW10G16   29.88F HX 102
Sussex         PTSUNNY   91  79  67 SW8       29.87F HX 107
Abdover          N/A     90  77  65 VRB6      29.88F HX 103
Trenton        MOSUNNY   94  74  52 NW7       29.88F HX 104
Millville      SUNNY     93  77  59 SW9       29.93F HX 107
Atlantic City  MOSUNNY   94  74  52 SW13      29.92F HX 104
Wrightstown    MOSUNNY   93  77  58 SW13      29.87F HX 106
Toms River     PTSUNNY   96  76  52 W12       29.90F HX 109
Belmar         MOSUNNY   93  77  59 W9        29.90F HX 107
$$

 

FiOS1 News Weather Forecast For Long Island

FiOS1 News Weather Forecast For New Jersey

FiOS1 News Weather Forecast For Hudson Valley

NATIONAL WEATHER SERVICE SNOW FORECASTS

JOIN JOESTRADAMUS ON YOUTUBE!

LATEST JOESTRADAMUS ON THE LONG RANGE

LONG ISLAND WEATHER

NEW YORK WEATHER

 

Weather App

storm free

Don’t be without Meteorologist Joe Cioffi’s weather app. It is really a meteorologist app because you get my forecasts and my analysis and not some automated computer generated forecast based on the GFS model. This is why your app forecast changes every 6 hours. It is model driven with no human input at all. It gives you an icon, a temperature and no insight whatsoever.

It is a complete weather app to suit your forecast needs. All the weather information you need is right on your phone. Android or I-phone, use it to keep track of all the latest weather information and forecasts. This weather app is also free of advertising so you don’t have to worry about security issues with your device. An accurate forecast and no worries that your device is being compromised.

Use it in conjunction with my website and my facebook and twitter and you have complete weather coverage of all the latest weather and the long range outlook. The website has been redone and upgraded. Its easy to use and everything is archived so you can see how well Joe does or doesn’t do when it comes to forecasts and outlooks.

Just click on the google play button or the apple store button on the sidebar for my app which is on My Weather Concierge. Download the app for free. Subscribe to my forecasts on an ad free environment for just 99 cents a month.
Get my forecasts in the palm of your hand for less than the cost of a cup of Joe!

 

http://www.fragalalandscape.com/

MENTION JOE CIOFFI AND GET A 5% DISCOUNT

 

Liked it? Take a second to support joestradamus on Patreon!